Regional Weather Roundup
Issued by NWS

Home | Current Version | Previous Version | Text Only | Print | Product List | Glossary Off
Versions: 1 2 3 4 5 6 7 8 9 10 11 12 13 14 15 16 17 18 19 20 21 22 23 24 25 26 27 28 29 30 31 32 33 34 35 36 37 38 39 40 41 42 43 44 45 46 47 48 49 50

000
ASUS43 KMKX 062359
RWRWI

WISCONSIN REGIONAL WEATHER ROUNDUP
NATIONAL WEATHER SERVICE MILWAUKEE/SULLIVAN WI
600 PM CST FRI MAR 06 2015

NOTE: "FAIR" INDICATES FEW OR NO CLOUDS BELOW 12,000 FEET WITH NO
SIGNIFICANT WEATHER AND/OR OBSTRUCTIONS TO VISIBILITY.

WIZ001-002-006>008-014>016-023>028-070100-
NORTHWEST WISCONSIN

CITY           SKY/WX    TMP DP  RH WIND       PRES   REMARKS
SUPERIOR ARPT  CLEAR     33  12  41 NW13      29.99S WCI  24
ASHLAND        CLEAR     30  10  43 W6        29.98S WCI  24
6HR MIN TEMP:  26; 6HR MAX TEMP:  34;

HAYWARD        CLEAR     31  10  41 W3        29.98R
6HR MIN TEMP:  23; 6HR MAX TEMP:  33;

SIREN          PTCLDY    32  14  47 W6        30.02S WCI  26
CUMBERLAND     PTCLDY    28  14  54 NW7       30.01R WCI  21
RICE LAKE      PTCLDY    28  14  54 SW5       30.03S WCI  23
6HR MIN TEMP:  24; 6HR MAX TEMP:  32;

CHETEK         PTCLDY    30  14  51 W5        30.02R WCI  25
LADYSMITH      CLEAR     28  13  53 SW6       30.02R WCI  22
6HR MIN TEMP:  22; 6HR MAX TEMP:  31;

EAU CLAIRE     NOT AVBL
MENOMONIE      PTCLDY    32  17  53 W3        30.04R
6HR MIN TEMP:  27; 6HR MAX TEMP:  36;

NEW RICHMOND   MOCLDY    31  15  51 NW6       30.04S WCI  26
OSCEOLA        MOCLDY    32  17  53 W6        30.06S WCI  26
$$

WIZ003>005-009-010-017-018-070100-
NORTH CENTRAL WISCONSIN

CITY           SKY/WX    TMP DP  RH WIND       PRES   REMARKS
MANITOWISH WTR FAIR      28  10  48 W6        29.92R WCI  21
ARBOR VITAE    CLEAR     29  11  46 W6        29.93R WCI  23
WOODRUFF       CLEAR     29  11  46 W6        29.93R WCI  23
RHINELANDER    CLEAR     23  10  57 W13       29.94R WCI  11
6HR MIN TEMP:  20; 6HR MAX TEMP:  29;

EAGLE RIVER    CLEAR     26   7  44 W10       29.91S WCI  17
LAND O LAKES   CLEAR     28   9  44 W6        29.91S WCI  22
PHILLIPS       PTCLDY    26  11  52 W5        29.96R WCI  21
6HR MIN TEMP:  19; 6HR MAX TEMP:  29;

TOMAHAWK       CLEAR     27  11  51 W5        29.96R WCI  21
MEDFORD        CLEAR     26  13  59 W9        29.98R WCI  16
MERRILL        CLEAR     26  13  58 W9        29.97R WCI  16
$$

WIZ029-030-035-036-043>047-070100-
CENTRAL WISCONSIN

CITY           SKY/WX    TMP DP  RH WIND       PRES   REMARKS
WAUSAU         CLEAR     26  13  57 W7        29.98R WCI  18
6HR MIN TEMP:  21; 6HR MAX TEMP:  29;

MOSINEE        CLEAR     28  14  54 W10       30.00R WCI  19
MARSHFIELD     CLEAR     28  15  58 W9        30.01R WCI  19
6HR MIN TEMP:  24; 6HR MAX TEMP:  32;

STEVENS POINT  CLEAR     30  13  50 W5        30.00R WCI  25
WAUPACA        CLEAR     32  15  48 SW9       30.01S WCI  24
WAUTOMA        NOT AVBL
WISC RAPIDS    CLEAR     31  14  49 W12       30.03R WCI  22
6HR MIN TEMP:  25; 6HR MAX TEMP:  33;

CAMP DOUGLAS   NOT AVBL
$$

WIZ011>013-019>022-031-037>040-048>050-070100-
NORTHEAST WISCONSIN

CITY           SKY/WX    TMP DP  RH WIND       PRES   REMARKS
ANTIGO         CLEAR     23  12  62 W10       29.95S WCI  13
SHAWANO        CLEAR     32  14  47 SW8       29.99S WCI  25
OCONTO         CLEAR     29  14  53 SW9       29.99S WCI  20
STURGEON BAY   CLEAR     25  12  58 SW13G18   30.01R WCI  13
6HR MIN TEMP:  25; 6HR MAX TEMP:  27;

GREEN BAY      CLEAR     26  16  65 SW10      30.01R WCI  16
6HR MIN TEMP:  22; 6HR MAX TEMP:  29;

MANITOWOC      NOT AVBL
APPLETON       PTCLDY    28  12  50 SW18      30.02R WCI  16
CLINTONVILLE   CLEAR     30  14  51 SW7       30.00R WCI  23
OSHKOSH        CLEAR     26  15  63 SW8       30.04R WCI  18
6HR MIN TEMP:  24; 6HR MAX TEMP:  29;

$$

WIZ032>034-041-042-053>061-070100-
SOUTHWEST WISCONSIN

CITY           SKY/WX    TMP DP  RH WIND       PRES   REMARKS
LA CROSSE      PTCLDY    33  22  63 S8        30.07R WCI  26
6HR MIN TEMP:  28; 6HR MAX TEMP:  36;

SPARTA         CLEAR     32  18  57 W5        30.07R WCI  27
VIROQUA        PTCLDY    29  20  68 SW7       30.05S WCI  22
BOSCOBEL       CLEAR     31  20  63 S5        30.10S WCI  26
6HR MIN TEMP:  27; 6HR MAX TEMP:  34; 6HR PCP: TRACE;

PRAIRIE DU CHI CLEAR     33  20  59 SW5       30.10S WCI  29
PLATTEVILLE    CLEAR     28  20  73 S8        30.10S WCI  20
$$

WIZ056-057-062-063-064-067-068-070100-
SOUTH CENTRAL WISCONSIN

CITY           SKY/WX    TMP DP  RH WIND       PRES   REMARKS
REEDSBURG      CLEAR     29  18  62 SW9       30.06S WCI  21
BARABOO/DELLS  CLEAR     28  16  61 SW12G17   30.06R WCI  17
LONE ROCK      NOT AVBL
MINERAL POINT  CLEAR     30  19  64 SW9       30.08R WCI  22
MADISON        PTCLDY    28  16  60 VRB7      30.08S WCI  21
6HR MIN TEMP:  23; 6HR MAX TEMP:  29;

MIDDLETON      CLEAR     30  16  55 SW12      30.08R WCI  20
WATERTOWN      CLEAR     25  17  69 S9        30.07F WCI  16
MONROE         CLEAR     28  21  74 SW14      30.08F WCI  17
JANESVILLE     CLEAR     28  18  64 SW12      30.11S WCI  18
$$

WIZ051-052-058>065-066-070>072-070100-
SOUTHEAST WISCONSIN

CITY           SKY/WX    TMP DP  RH WIND       PRES   REMARKS
MILWAUKEE      PTCLDY    26  15  63 SW16      30.10F WCI  14
6HR MIN TEMP:  23; 6HR MAX TEMP:  28;

WAUKESHA       CLEAR     25  14  63 SW15G29   30.10F WCI  12
MILWAUKEE/TIMM CLEAR     27  14  59 SW17      30.09F WCI  14
RACINE         PTCLDY    25  15  66 SW14      30.13S WCI  13
6HR MIN TEMP:  23; 6HR MAX TEMP:  29;

BURLINGTON     CLEAR     23  16  74 SW13      30.11F WCI  11
KENOSHA        PTCLDY    26  16  65 SW15G25   30.12S WCI  14
6HR MIN TEMP:  24; 6HR MAX TEMP:  29;

FOND DU LAC    CLEAR     25  13  60 SW14      30.05R WCI  13
6HR MIN TEMP:  25; 6HR MAX TEMP:  28;

SHEBOYGAN      PTCLDY    25  14  63 SW15      30.05R WCI  13
6HR MIN TEMP:  25; 6HR MAX TEMP:  28;

WEST BEND      CLEAR     27  14  59 SW13G20   30.06S WCI  16
JUNEAU         CLEAR     24  15  68 S13       30.07F WCI  12
$$

LSZ147-162-070100-
LAKE SUPERIOR

STATION/POSITION TIME  TEMP    WIND        PRES    WAVE
                       AIR SEA DIR/SP/G            HT/PER
                 (UTC) (F)     (DEG/KT/KT) (MB)    (FT/S)
DEVILS ISLAND    2300   30     250/ 14/ 18 1015.0R
PORT WING        2300   33     250/ 11/ 15 1015.2R
SAXON HARBOR     2340   32     270/  3/  7 1015.2R
$$

LMZ867-665-643>646-070100-
LAKE MICHIGAN

STATION/POSITION TIME  TEMP    WIND        PRES    WAVE
                       AIR SEA DIR/SP/G            HT/PER
                 (UTC) (F)     (DEG/KT/KT) (MB)    (FT/S)
NORTHPORT PIER   2300   28     170/  4/ 17 1014.9S
SISTER BAY       2328   27     230/ 15/ 18   N/A
KEWAUNEE LAKESHO 2300   28     210/ 12/ 15 1015.7F
SHEBOYGAN LAKESH 2300   27     210/ 17/ 20 1019.0F
PORT WASHINGTON  2340   27     240/  8/ 12 1019.0F
MILWAUKEE LAKESH 2300   28     230/ 16/ 19   N/A
KENOSHA   LAKESH 2300   27     220/ 17/ 25 1020.3F
$$

TC  - TEMPERATURE IN CELSIUS
VSB - VISIBILITY IN STATUTE MILES
WCI - WIND CHILL INDEX
HX  - HEAT INDEX



USA.gov is the U.S. government's official web portal to all federal, state and local government web resources and services.